Weather History for Campo, CA

Change the Weather History Date:

Thursday, November 6, 2014

  Actual Average Record
Temperature  
Mean Temperature 64 °F 56 °F  
Max Temperature 76 °F 73 °F 87 °F (1980)
Min Temperature 51 °F 38 °F 26 °F (1957)
Degree Days  
Heating Degree Days 1 9  
Month to date heating degree days 58 53  
Since 1 July heating degree days 146 263  
Cooling Degree Days 0 0  
Month to date cooling degree days 0 0  
Year to date cooling degree days 900 839  
Growing Degree Days 14 (Base 50)    
Moisture  
Dew Point 22 °F    
Average Humidity 18    
Maximum Humidity 23    
Minimum Humidity 13    
Precipitation  
Precipitation 0.00 in 0.03 in 0.76 in (1960)
Month to date precipitation 0.13 0.17  
Year to date precipitation 4.92 12.50  
Since 1 July precipitation 2.16 2.35  
Snow  
Snow 0.00 in - - ()
Month to date snowfall 0.0  
Year to date snowfall 0.0  
Since 1 July snowfall 0.0  
Snow Depth 0.00 in    
Sea Level Pressure  
Sea Level Pressure 30.10 in    
Wind  
Wind Speed 13 mph (ENE)    
Max Wind Speed 26 mph    
Max Gust Speed 34 mph    
T = Trace of Precipitation, MM = Missing Value Source: NWS Daily Summary

Daily Weather History Graph

Daily Weather History Graph

Search for Another Location

Airport:

Trip Planner

Search our weather history database for the weather conditions in past years. The results will help you decide how hot, cold, wet, or windy it might be!

Date:

Astronomy

Nov. 06, 2014 Rise Set
Actual Time 6:07 AM PST 4:50 PM PST
Civil Twilight 5:42 AM PST 5:16 PM PST
Nautical Twilight 5:12 AM PST 5:45 PM PST
Astronomical Twilight 4:43 AM PST 6:14 PM PST
Moon 5:00 PM PST (11/6) 5:46 AM PST (11/6)
Length of Visible Light 11h 34m
Length of Day
10h 43m
Full, 100% of the Moon is Illuminated
Nov 6
Full
Nov 6
Full
Nov 14
Last Quarter
Nov 22
New
Nov 29
First Quarter

Hourly Weather History & Observations

Time (PST) Temp. Dew Point Humidity Pressure Visibility Wind Dir Wind Speed Gust Speed Precip Events Conditions
12:52 AM 63.0 °F 15.1 °F 16% 30.06 in - ENE 16.1 mph - N/A   Unknown
1:52 AM 62.1 °F 16.0 °F 17% 30.07 in - East 10.4 mph - N/A   Unknown
2:52 AM 61.0 °F 16.0 °F 17% 30.07 in - Calm Calm - N/A   Unknown
3:52 AM 60.1 °F 17.1 °F 19% 30.08 in - ENE 9.2 mph - N/A   Unknown
4:52 AM 57.9 °F 17.1 °F 20% 30.10 in - ENE 5.8 mph - N/A   Unknown
5:52 AM 55.9 °F 18.0 °F 23% 30.12 in - East 4.6 mph - N/A   Unknown
6:52 AM 57.9 °F 19.0 °F 22% 30.15 in - Calm Calm - N/A   Unknown
7:52 AM 71.1 °F 21.0 °F 15% 30.14 in - NE 19.6 mph - N/A   Unknown
8:52 AM 73.0 °F 19.9 °F 14% 30.15 in - NE 20.7 mph 27.6 mph N/A   Unknown
9:52 AM 73.9 °F 19.0 °F 13% 30.14 in - ENE 16.1 mph 26.5 mph N/A   Unknown
10:52 AM 73.9 °F 23.0 °F 15% 30.12 in - ENE 20.7 mph 33.4 mph N/A   Unknown
11:52 AM 75.9 °F 26.1 °F 16% 30.09 in - NE 18.4 mph 29.9 mph N/A   Unknown
12:52 PM 75.9 °F 25.0 °F 15% 30.06 in - NE 20.7 mph 28.8 mph N/A   Unknown
1:52 PM 75.0 °F 25.0 °F 16% 30.06 in - ENE 19.6 mph 29.9 mph N/A   Unknown
2:52 PM 75.0 °F 24.1 °F 15% 30.06 in - NE 17.3 mph 27.6 mph N/A   Unknown
3:52 PM 73.0 °F 24.1 °F 16% 30.06 in - NE 17.3 mph - N/A   Unknown
4:52 PM 69.1 °F 25.0 °F 19% 30.08 in - NE 11.5 mph - N/A   Unknown
5:52 PM 63.0 °F 25.0 °F 24% 30.10 in - ENE 8.1 mph - N/A   Unknown
6:52 PM 57.9 °F 24.1 °F 27% 30.12 in - NE 6.9 mph - N/A   Unknown
7:52 PM 53.1 °F 24.1 °F 32% 30.11 in - East 8.1 mph - N/A   Unknown
8:52 PM 55.9 °F 23.0 °F 28% 30.10 in - ENE 9.2 mph - N/A   Unknown
9:52 PM 52.0 °F 23.0 °F 32% 30.11 in - ENE 5.8 mph - N/A   Unknown
10:52 PM 52.0 °F 24.1 °F 34% 30.11 in - NE 6.9 mph - N/A   Unknown
11:52 PM 57.0 °F 23.0 °F 27% 30.09 in - ESE 4.6 mph - N/A   Unknown